Lake Clear, NY

4:47 PM EST on December 09, 2016 (GMT -0500)
Adirondack Regional

Weather History for KSLK - January, 2014

Change the Weather History Date:

Wednesday, January 29, 2014

  Actual Average Record
Temperature  
Mean Temperature -2 °F 13 °F  
Max Temperature 9 °F 25 °F 44 °F (1975)
Min Temperature -13 °F 1 °F -23 °F (2000)
Degree Days  
Heating Degree Days 67 52  
Month to date heating degree days 1576 1499  
Since 1 July heating degree days 5414 5198  
Cooling Degree Days 0 0  
Month to date cooling degree days 0  
Year to date cooling degree days 0  
Moisture  
Dew Point -5 °F    
Average Humidity 71    
Maximum Humidity 86    
Minimum Humidity 55    
Precipitation  
Precipitation T in 0.07 in 0.52 in (1958)
Month to date precipitation 1.55 1.98  
Year to date precipitation 1.55 1.98  
Sea Level Pressure  
Sea Level Pressure 29.97 in    
Wind  
Wind Speed 10 mph (SW)    
Max Wind Speed 24 mph    
Max Gust Speed 30 mph    
Visibility 8 miles    
Events Snow    
T = Trace of Precipitation, MM = Missing Value Source: NWS Daily Summary

Daily Weather History Graph

Daily Weather History Graph

Search for Another Location

Airport or City:

Trip Planner

Search our weather history database for the weather conditions in past years. The results will help you decide how hot, cold, wet, or windy it might be!

Date:

Astronomy

Jan. 29, 2014 Rise Set
Actual Time 7:18 AM EST 5:02 PM EST
Civil Twilight 6:47 AM EST 5:33 PM EST
Nautical Twilight 6:12 AM EST 6:08 PM EST
Astronomical Twilight 5:38 AM EST 6:42 PM EST
Moon 5:53 AM EST (1/29) 3:58 PM EST (1/29)
Length of Visible Light 10h 46m
Length of Day
9h 43m
Waning Crescent, 2% of the Moon is Illuminated
Jan 29
Waning Crescent
Jan 30
New
Feb 6
First Quarter
Feb 14
Full
Feb 22
Last Quarter

Hourly Weather History & Observations

Time (EST) Temp. Windchill Dew Point Humidity Pressure Visibility Wind Dir Wind Speed Gust Speed Precip Events Conditions
12:51 AM -2.0 °F -18.7 °F -13.0 °F 60% 30.10 in 10.0 mi SSW 10.4 mph - N/A   Clear
2:51 AM -6.0 °F -18.6 °F -13.0 °F 72% 30.07 in 10.0 mi SW 5.8 mph - N/A   Clear
3:51 AM -6.0 °F -16.9 °F -13.0 °F 72% 30.05 in 10.0 mi SW 4.6 mph - N/A   Clear
4:51 AM -11.0 °F - -15.0 °F 83% 30.04 in 10.0 mi Calm Calm - N/A   Clear
5:51 AM -11.0 °F - -16.1 °F 78% 30.03 in 10.0 mi Calm Calm - N/A   Clear
6:51 AM -13.0 °F - -18.0 °F 78% 30.03 in 10.0 mi Calm Calm - N/A   Scattered Clouds
7:51 AM -8.0 °F -16.9 °F -14.1 °F 75% 30.02 in 10.0 mi WSW 3.5 mph - N/A   Clear
8:07 AM -5.1 °F -13.6 °F -11.0 °F 76% 29.88 in 10.0 mi SSW 3.5 mph - N/A   Mostly Cloudy
8:51 AM -0.9 °F -17.4 °F -11.0 °F 62% 30.00 in 10.0 mi SSW 10.4 mph - N/A   Overcast
9:51 AM 1.9 °F -18.7 °F -8.0 °F 63% 29.99 in 10.0 mi SSW 18.4 mph 23.0 mph N/A   Mostly Cloudy
10:26 AM 3.0 °F -14.8 °F -8.0 °F 60% 29.84 in 10.0 mi SSW 13.8 mph - N/A   Scattered Clouds
10:51 AM 3.9 °F -16.1 °F -7.1 °F 60% 29.96 in 10.0 mi SW 18.4 mph 29.9 mph N/A   Clear
11:46 AM 6.8 °F -11.3 °F -7.6 °F 52% 29.81 in 10.0 mi SW 16.1 mph 24.2 mph N/A   Mostly Cloudy
11:51 AM 6.1 °F -10.9 °F -7.1 °F 55% 29.94 in 10.0 mi SW 13.8 mph 26.5 mph N/A   Mostly Cloudy
12:04 PM 6.1 °F -11.6 °F -7.1 °F 55% 29.80 in 10.0 mi SW 15.0 mph - N/A   Mostly Cloudy
12:51 PM 8.1 °F -9.0 °F -6.0 °F 53% 29.91 in 10.0 mi SW 15.0 mph 28.8 mph N/A   Mostly Cloudy
1:51 PM 8.1 °F -8.4 °F -6.0 °F 53% 29.91 in 10.0 mi WSW 13.8 mph 24.2 mph N/A   Overcast
2:51 PM 8.1 °F -11.2 °F -5.1 °F 55% 29.92 in 10.0 mi SW 19.6 mph 29.9 mph N/A   Overcast
3:51 PM 8.1 °F -9.6 °F -4.0 °F 58% 29.94 in 10.0 mi SW 16.1 mph 25.3 mph N/A   Overcast
4:51 PM 7.0 °F -8.3 °F -0.9 °F 70% 29.98 in 4.0 mi SW 11.5 mph 20.7 mph N/A   Haze
5:28 PM 6.1 °F -10.2 °F -0.0 °F 76% 29.86 in 5.0 mi WSW 12.7 mph 20.7 mph N/A   Haze
5:48 PM 6.8 °F -6.9 °F 1.4 °F 79% 29.87 in 2.5 mi SW 9.2 mph - N/A   Haze
5:51 PM 6.1 °F -7.8 °F 1.0 °F 80% 30.01 in 2.5 mi WSW 9.2 mph - N/A   Haze
6:14 PM 6.1 °F -9.5 °F 1.0 °F 80% 29.88 in 4.0 mi SW 11.5 mph - N/A   Haze
6:26 PM 6.1 °F -8.7 °F 1.0 °F 80% 29.88 in 5.0 mi WSW 10.4 mph - N/A   Haze
6:51 PM 6.1 °F -7.8 °F 1.0 °F 80% 30.03 in 5.0 mi WSW 9.2 mph - N/A   Haze
7:30 PM 6.1 °F -4.3 °F 1.9 °F 83% 29.90 in 2.5 mi WSW 5.8 mph - 0.00 in Snow Light Snow
7:39 PM 6.1 °F -6.8 °F 1.9 °F 83% 29.91 in 1.0 mi SW 8.1 mph - 0.00 in Snow Light Snow
7:51 PM 6.1 °F -7.8 °F 1.9 °F 83% 30.04 in 1.5 mi SW 9.2 mph - 0.00 in Snow Light Snow
7:57 PM 6.1 °F -7.8 °F 3.0 °F 87% 29.91 in 3.0 mi SW 9.2 mph - 0.00 in Snow Light Snow
8:51 PM 7.0 °F -9.1 °F 1.9 °F 80% 30.05 in 9.0 mi WSW 12.7 mph 23.0 mph 0.00 in   Overcast
9:13 PM 7.0 °F -8.3 °F 1.9 °F 80% 29.94 in 10.0 mi WSW 11.5 mph 19.6 mph N/A   Scattered Clouds
9:51 PM 7.0 °F -7.5 °F 1.0 °F 77% 30.09 in 10.0 mi WSW 10.4 mph - N/A   Clear
10:51 PM 6.1 °F -6.8 °F 1.0 °F 80% 30.12 in 10.0 mi WSW 8.1 mph - N/A   Scattered Clouds
11:51 PM 6.1 °F -6.8 °F 1.0 °F 80% 30.13 in 10.0 mi WSW 8.1 mph - N/A   Partly Cloudy